Weather in Lobakin

Russia / Volgograd Oblast     48°47′42″N   42°50′36″E
temp.,
°C
wind,
m/s
gust,
m/s
humid.,
%
clouds,
%
prec.,
mm/h
press.,
hPa
HPBL,
m
28 july, wed
wed2800:00+22se01425 0.0 101711
03:00+20n22433 0.0 101711
06:00+22nw22421 0.0 101732
09:00+28n23300 0.0 1017818
12:00+31nnw33255 0.0 10162954
15:00+32nnw332232 0.0 10143347
18:00+32n33248 0.0 10142752
21:00+27nne3433100 0.0 101577
29 july, thu
thu2900:00+26ese223494 0.0 101433
03:00+24se113839 0.0 101311
06:00+24sw114173 0.0 101317
09:00+29wsw452990 0.0 1013584
12:00+33wsw452521 0.0 10122982
15:00+34wsw662351 0.0 10113022
18:00+30nw34338 0.0 1010232
21:00+27wnw233858 0.0 101142
30 july, fri
fri3000:00+25ssw224781 0.0 101011
03:00+23w225226 0.1 101015
06:00+24w23556 0.0 101186
09:00+31sw46386 0.0 10101039
12:00+34wsw672412 0.0 10103071
15:00+35wsw772135 0.0 10083292
18:00+29wnw8114196 0.0 1008407
21:00+27sw51041100 0.1 1009282
31 july, sat
sat3100:00+26sw354945 0.1 100998
03:00+24wsw346734 0.9 100958
06:00+24ssw23635 0.0 1010102
09:00+30wsw34344 0.0 1010741
12:00+35w462520 0.0 10092553
15:00+34w652497 0.0 10092250
18:00+32wnw3426100 0.0 1009411
21:00+27ene334439 0.0 101040
1 august, sun
sun100:00+25e345315 0.0 101154
03:00+24e34540 0.0 101151
06:00+24ese37505 0.0 1012190
09:00+32ese34302 0.0 1011701
12:00+36sse45170 0.0 10103196
15:00+37sse44150 0.0 10093642
18:00+36s44162 0.0 10092491
21:00+29sse22221 0.0 101011